Погода в Ситжесе

Испания     41°14′13″N   1°48′11″E
темп.,
°C
ветер,
м/с
пор.,
м/с
влажн.,
%
обл.,
%
осадки,
мм/ч
давл.,
гПа
погр.,
м
5 марта, пт
пт501:00+10сз12840 0.0 101987
04:00+10сз12820 0.0 101865
07:00+10ссз22790 0.0 101858
10:00+12зюз11680 0.0 1018247
13:00+14ююз33680 0.0 1018473
16:00+14ююз44670 0.0 1017389
19:00+12ю22720 0.0 1017133
22:00+12зюз11780 0.0 101964
6 марта, сб
сб601:00+11сз12750 0.0 102028
04:00+11с227212 0.0 102029
07:00+11св237530 0.0 102159
10:00+12в4581100 0.0 1023538
13:00+13вюв446895 0.0 1024569
16:00+13вюв3466100 0.0 1022491
19:00+12в3472100 0.0 1022305
22:00+11всв237631 0.0 1024342
7 марта, вс
вс701:00+10св137952 0.0 1024197
04:00+10с237584 0.0 1022161
07:00+10ссв347592 0.0 1021210
10:00+12всв3569100 0.0 1021561
13:00+13в556899 0.0 1020654
16:00+13вюв4472100 0.0 1018541
19:00+11в128297 0.0 1017235
22:00+11всв128275 0.0 1018214
8 марта, пн
пн801:00+11с128168 0.0 1017126
04:00+10сз117881 0.0 101650
07:00+10с117886 0.0 101656
10:00+12ю017092 0.0 1017315
13:00+13ю336771 0.1 1017650
16:00+13ю336959 0.4 1016542
19:00+12юв127879 1.3 1016253
22:00+11ссв1286100 4.9 1018134
9 марта, вт
вт901:00+11сз5782100 8.9 1019262
04:00+11сз6775100 2.2 1019226
07:00+10ссз227680 2.3 101981
10:00+12св226522 0.0 1020458
13:00+14юв335811 0.0 1021914
16:00+13ююв326519 0.1 1019424
19:00+12юв227010 0.1 1021169
22:00+11вюв12790 0.0 1024204